Find Starlink 32841

NORAD ID: 62865 Int'l Des: 2025-022 Owner: SPXS Country: US Constellation: starlink operational
LEOCIRCULAR

Live-Position

3D-Globus wird geladen...

Über Starlink 32841

Beschreibung wird geladen...

Nächste Überflüge

Passes for default location (London). Set your location on the main map for personalized predictions.

Höhenverlauf

Loading altitude history...

Zweizeiliger Elementsatz

1 62865U 25022M 26124.03520498 .00024584 00000-0 83948-3 0 9992
2 62865 53.1605 232.5496 0001022 99.1134 260.9982 15.30197620 70368
Epoch: 4. Mai 2026 • Age: 10 hours

Aktueller Status

Höhe 480.4 km
Geschwindigkeit 7.63 km/s
Subsatellitenpunkt -18.58°S, 35.69°E
Startdatum 2. Feb. 2025
Alter 1.2 years
Typ internet

Technische Details

Klassifizierung Payload
Masse 730.00 kg
Trockenmasse 700.00 kg
Gesamtmasse 730.00 kg
Länge 0.30 m
Durchmesser 4.10 m
Spannweite 29.00 m
Form Box + pan
Hersteller SPXS
Bus-Typ Starlink V2M
Phasenstatus In Orbit
Besitzer/Staat SPXS/US

Most Searched